Change the Weather History Date:

Monday, January 28, 2013

  Actual Average Record
Temperature  
Mean Temperature 29 °F -  
Max Temperature 32 °F 16 °F 37 °F (2008)
Min Temperature 26 °F -4 °F -37 °F (1966)
Degree Days  
Heating Degree Days 36    
Moisture  
Dew Point 28 °F    
Average Humidity 93    
Maximum Humidity 100    
Minimum Humidity 80    
Precipitation  
Precipitation 0.38 in - - ()
Sea Level Pressure  
Sea Level Pressure 29.77 in    
Wind  
Wind Speed 2 mph (SSE)    
Max Wind Speed 8 mph    
Max Gust Speed -    
Visibility 3 miles    
Events Fog , Rain , Snow    
Averages and records for this station are not official NWS values.
T = Trace of Precipitation, MM = Missing Value Source: NWS Daily Summary

Daily Weather History Graph

Daily Weather History Graph

Search for Another Location

Airport or City:

Trip Planner

Search our weather history database for the weather conditions in past years. The results will help you decide how hot, cold, wet, or windy it might be!

Date:

Astronomy

Jan. 28, 2013 Rise Set
Actual Time 7:49 AM CST 5:17 PM CST
Civil Twilight 7:16 AM CST 5:50 PM CST
Nautical Twilight 6:39 AM CST 6:27 PM CST
Astronomical Twilight 6:04 AM CST 7:03 PM CST
Moon 7:24 PM CST 8:06 AM CST
Length of Visible Light 10h 34m
Length of Day
9h 28m
Full, 98% of the Moon is Illuminated
Jan 28
Full
Feb 3
Last Quarter
Feb 10
New
Feb 17
First Quarter
Feb 25
Full

Hourly Weather History & Observations

Time (CST) Temp. Windchill Dew Point Humidity Pressure Visibility Wind Dir Wind Speed Gust Speed Precip Events Conditions
12:05 AM 26.6 °F 22.6 °F 21.2 °F 80% 29.77 in 10.0 mi SE 3.5 mph - N/A   Overcast
12:20 AM 26.6 °F - 21.2 °F 80% 29.77 in 9.0 mi Calm Calm - N/A   Overcast
12:51 AM 26.6 °F - 23.0 °F 86% 29.77 in 9.0 mi Calm Calm - N/A   Overcast
12:53 AM 26.1 °F - 21.9 °F 84% 29.83 in 8.0 mi Calm Calm - N/A   Overcast
1:53 AM 26.1 °F - 21.9 °F 84% 29.83 in 8.0 mi Calm Calm - N/A   Overcast
2:53 AM 27.0 °F - 23.0 °F 85% 29.84 in 7.0 mi Calm Calm - N/A   Overcast
3:42 AM 26.6 °F - 24.8 °F 93% 29.78 in 7.0 mi Calm Calm - N/A   Overcast
3:53 AM 27.0 °F - 23.0 °F 85% 29.83 in 6.0 mi Calm Calm - N/A   Overcast
4:03 AM 26.6 °F 21.2 °F 21.2 °F 80% 29.76 in 6.0 mi East 4.6 mph - N/A   Overcast
4:16 AM 26.6 °F 21.2 °F 24.8 °F 93% 29.76 in 5.0 mi East 4.6 mph - N/A   Overcast
4:53 AM 27.0 °F - 25.0 °F 92% 29.83 in 3.0 mi Calm Calm - N/A   Overcast
4:57 AM 26.6 °F - 24.8 °F 93% 29.77 in 2.5 mi Calm Calm - N/A   Overcast
5:53 AM 27.0 °F 21.6 °F 25.0 °F 92% 29.82 in 2.0 mi ESE 4.6 mph - N/A   Overcast
6:19 AM 26.6 °F 20.0 °F 24.8 °F 93% 29.77 in 1.8 mi SSE 5.8 mph - N/A   Overcast
6:53 AM 27.0 °F 23.0 °F 25.0 °F 92% 29.85 in 1.5 mi South 3.5 mph - N/A   Overcast
7:53 AM 26.1 °F 20.5 °F 25.0 °F 96% 29.85 in 1.2 mi SE 4.6 mph - N/A   Overcast
8:13 AM 26.6 °F 21.2 °F 24.8 °F 93% 29.78 in 0.8 mi SE 4.6 mph - N/A   Overcast
8:53 AM 28.0 °F 21.7 °F 26.1 °F 92% 29.83 in 0.8 mi SE 5.8 mph - N/A   Overcast
9:53 AM 28.0 °F 20.8 °F 27.0 °F 96% 29.86 in 1.0 mi South 6.9 mph - N/A   Overcast
10:53 AM 28.9 °F 23.9 °F 28.0 °F 96% 29.84 in 1.0 mi SSE 4.6 mph - N/A   Overcast
11:53 AM 30.0 °F 24.1 °F 28.0 °F 92% 29.83 in 1.2 mi SSE 5.8 mph - N/A   Overcast
12:53 PM 30.9 °F 23.5 °F 28.9 °F 92% 29.84 in 1.2 mi SSW 8.1 mph - N/A   Overcast
1:53 PM 30.9 °F 27.5 °F 30.0 °F 96% 29.81 in 1.8 mi South 3.5 mph - N/A   Overcast
2:02 PM 30.2 °F 25.4 °F 30.2 °F 100% 29.75 in 2.0 mi SSW 4.6 mph - N/A   Overcast
2:51 PM 30.2 °F 26.7 °F 30.2 °F 100% 29.74 in 1.8 mi SE 3.5 mph - N/A   Overcast
2:53 PM 30.9 °F - 30.0 °F 96% 29.80 in 1.5 mi Calm Calm - N/A   Overcast
3:08 PM 30.2 °F 26.7 °F 30.2 °F 100% 29.73 in 2.5 mi SE 3.5 mph - N/A   Overcast
3:30 PM 32.0 °F 27.5 °F 30.2 °F 93% 29.75 in 3.0 mi SSW 4.6 mph - N/A   Overcast
3:53 PM 32.0 °F 28.7 °F 30.0 °F 92% 29.81 in 4.0 mi SW 3.5 mph - N/A   Overcast
4:53 PM 32.0 °F 28.7 °F 30.0 °F 92% 29.79 in 3.0 mi SW 3.5 mph - 0.00 in   Overcast
4:59 PM 32.0 °F - 30.2 °F 93% 29.73 in 2.5 mi Calm Calm - 0.00 in   Overcast
5:08 PM 32.0 °F 26.4 °F 30.2 °F 93% 29.74 in 2.5 mi SSW 5.8 mph - 0.01 in Rain Light Freezing Rain
5:19 PM 32.0 °F 28.7 °F 30.2 °F 93% 29.74 in 3.0 mi SSW 3.5 mph - 0.01 in Rain Light Freezing Rain
5:30 PM 32.0 °F 28.7 °F 30.2 °F 93% 29.74 in 3.0 mi SSW 3.5 mph - 0.01 in Snow Light Snow
5:53 PM 32.0 °F - 30.9 °F 96% 29.80 in 3.0 mi Calm Calm - 0.01 in   Overcast
6:21 PM 30.2 °F 26.7 °F 30.2 °F 100% 29.74 in 2.5 mi SW 3.5 mph - 0.00 in   Overcast
6:45 PM 30.2 °F - 30.2 °F 100% 29.74 in 1.5 mi Calm Calm - 0.00 in Snow Light Snow
6:53 PM 30.9 °F - 30.0 °F 96% 29.81 in 1.0 mi Calm Calm - 0.00 in Snow Light Snow
7:12 PM 30.2 °F - 30.2 °F 100% 29.73 in 1.0 mi Calm Calm - 0.02 in Snow Light Snow
7:28 PM 30.2 °F - 30.2 °F 100% 29.72 in 1.0 mi Calm Calm - 0.02 in Snow Light Snow
7:33 PM 30.2 °F - 30.2 °F 100% 29.72 in 0.8 mi Calm Calm - 0.02 in Snow Light Snow
7:53 PM 30.9 °F - 30.0 °F 96% 29.78 in 0.8 mi Calm Calm - 0.04 in Snow Light Snow
8:03 PM 30.2 °F - 30.2 °F 100% 29.71 in 1.0 mi Calm Calm - 0.00 in Snow Light Snow
8:12 PM 30.2 °F - 30.2 °F 100% 29.71 in 0.8 mi Calm Calm - 0.01 in Snow Light Snow
8:53 PM 30.9 °F - 30.0 °F 96% 29.77 in 0.5 mi Calm Calm - 0.09 in Fog , Snow Snow
9:28 PM 30.2 °F - 30.2 °F 100% 29.69 in 0.5 mi Calm Calm - 0.05 in Fog , Snow Snow
9:53 PM 30.9 °F 27.5 °F 30.0 °F 96% 29.74 in 0.5 mi NNW 3.5 mph - 0.09 in Fog , Snow Snow
10:53 PM 30.9 °F 26.2 °F 28.9 °F 92% 29.72 in 0.5 mi North 4.6 mph - 0.11 in Fog , Snow Snow
11:12 PM 30.2 °F 24.3 °F 28.4 °F 93% 29.65 in 1.0 mi North 5.8 mph - 0.02 in Snow Light Snow
11:25 PM 30.2 °F 24.3 °F 28.4 °F 93% 29.64 in 1.2 mi North 5.8 mph - 0.03 in Snow Light Snow
11:53 PM 30.9 °F 26.2 °F 28.9 °F 92% 29.69 in 1.0 mi North 4.6 mph - 0.04 in Snow Light Snow